Presure
131 106 113 142 112 128 133 118 121 114 118 134 140 149 143 163 210 163 121 139 196 204 211 210 202 210 204 190 194 186 193 198 189 188 180 179 190 179 204 181 214 224 220 200 200 191 194 198 200
131 125 119 109 110 122 112 116 107 130 128 138 115 111 137 127 112 203 167 200 208 205 210 207 214 206 206 199 189 200 195 189 189 195 182 205 197 189 199 196 184 192 216 211 196 194 193 182 181
120 109 120 140 124 116 118 122 110 129 134 134 111 97 114 134 145 129 133 169 194 201 168 199 178 201 201 197 197 205 185 187 192 199 191 177 194 184 191 188 187 192 189 186 186 198 192 191 188
101 109 132 119 120 113 123 127 135 112 125 125 129 90 126 135 95 205 89 131 161 210 204 201 194 182 201 197 201 193 200 196 193 195 193 186 170 190 181 185 187 184 183 183 180 178 182 184 188
102 130 106 112 123 114 119 131 110 106 115 119 134 144 98 151 127 186 196 132 122 206 194 205 169 188 183 202 198 195 195 190 190 198 160 189 191 186 196 186 197 185 186 193 188 185 168 178 179
107 115 104 112 128 114 122 121 119 120 102 115 107 122 98 138 143 204 140 198 205 208 193 187 197 191 188 194 178 204 193 194 205 182 190 179 192 201 198 182 187 190 193 183 195 190 192 184 192
114 127 111 122 115 126 125 137 92 131 134 115 125 126 147 123 146 145 159 199 208 205 186 185 183 197 181 196 195 200 162 166 164 159 201 193 161 182 161 157 177 173 168 177 170 175 175 180 184
110 114 111 111 114 102 133 117 130 142 118 101 138 155 126 84 138 158 193 193 185 208 203 188 188 199 187 195 186 164 188 168 184 195 186 181 168 165 165 154 144 178 182 180 166 175 160 160 174
116 126 110 117 107 124 129 124 110 111 107 116 144 118 119 132 143 152 171 196 190 197 203 191 182 188 182 175 195 181 175 182 186 173 163 167 161 174 166 191 165 187 167 160 156 153 169 159 174
115 123 114 111 114 115 131 109 148 114 120 148 131 137 112 147 147 128 198 199 156 200 191 191 190 184 185 199 191 182 177 180 174 176 173 172 171 150 182 175 180 172 179 171 159 172 149 158 179
109 115 124 121 108 115 122 133 128 125 116 123 133 119 105 136 128 146 184 195 132 200 199 187 182 189 185 179 196 172 178 176 176 175 164 169 175 170 166 173 182 141 178 173 162 171 160 179 183
120 114 135 117 106 104 122 135 137 124 126 105 150 111 131 122 110 146 163 199 126 194 191 185 183 181 188 181 193 179 179 174 169 168 163 164 163 170 170 166 168 145 176 172 171 178 160 184 176
123 115 120 119 116 115 129 123 128 143 118 136 140 142 103 120 117 137 133 200 199 193 189 190 199 187 189 183 198 188 178 171 172 170 170 176 166 170 169 171 165 146 171 170 179 179 165 182 171
96 112 121 105 105 116 143 156 147 131 123 107 144 122 152 121 140 141 152 216 201 193 197 189 199 184 190 190 189 184 170 169 169 173 171 163 162 156 164 163 165 165 166 172 175 188 153 167 148
118 122 109 124 128 128 145 145 133 112 140 145 130 132 117 135 118 109 200 201 201 196 193 207 194 181 187 186 178 180 179 171 168 173 170 168 173 167 174 172 161 152 168 184 170 161 147 159 145
139 145 147 148 141 144 120 138 143 133 124 126 129 129 129 103 157 141 132 167 201 207 202 130 185 193 185 186 174 168 164 182 179 175 175 172 164 164 163 169 165 159 159 164 178 148 159 161 183
128 116 113 131 139 121 138 119 130 134 121 118 122 173 132 171 118 133 131 148 144 210 219 197 191 194 184 172 188 178 175 188 180 185 176 174 171 176 168 154 162 168 170 177 176 155 181 170 165
96 141 129 119 133 126 123 119 119 122 114 118 164 120 122 130 128 148 147 131 167 202 201 202 201 193 185 180 187 194 196 183 186 176 178 175 174 165 156 160 163 166 158 166 162 142 153 156 170
146 119 104 137 117 131 96 139 128 122 153 142 109 126 132 119 147 142 129 163 140 202 186 189 192 191 186 190 187 204 173 179 182 184 177 172 172 146 167 172 163 161 165 154 170 170 161 173 141
144 111 127 144 141 143 126 135 117 104 104 125 95 135 120 137 127 141 140 163 200 186 184 202 202 201 183 183 180 194 184 200 193 186 183 180 165 160 169 169 167 169 165 156 179 176 163 143 171
109 115 141 101 154 114 147 109 133 117 120 137 139 110 119 119 123 135 150 132 161 173 199 185 198 195 186 181 186 189 183 179 149 159 189 179 172 164 162 159 180 174 174 191 152 169 165 166 155
131 106 122 136 150 155 164 149 117 80 128 143 144 147 81 134 143 147 168 161 155 188 191 192 189 193 182 184 185 186 179 193 178 175 182 186 167 167 172 160 155 175 162 167 153 164 160 142 168
126 122 105 141 137 146 142 174 132 130 75 94 123 100 77 114 159 169 127 160 153 198 168 189 199 193 191 181 180 171 171 136 169 171 163 156 148 177 172 186 146 179 141 155 184 183 148 162 153
206 140 150 133 147 153 174 173 189 195 83 83 123 115 67 148 131 167 146 170 152 150 197 190 193 195 188 174 175 182 187 169 161 166 189 169 179 152 161 173 199 177 151 175 159 143 177 144 164
155 144 142 145 146 131 149 147 93 84 110 148 142 70 141 107 130 147 163 150 154 190 180 190 198 192 177 190 180 186 188 185 171 173 171 150 153 153 179 167 161 155 185 174 170 166 156 155 179
151 121 205 156 155 132 153 149 113 106 141 150 68 136 107 123 151 158 157 161 182 175 162 190 186 188 192 185 194 195 177 187 179 174 171 183 198 174 156 163 178 144 185 187 178 177 147 152 197
145 143 172 146 148 164 141 122 124 141 117 135 131 111 120 154 134 163 109 175 157 184 162 193 188 184 174 182 191 179 181 183 152 167 188 161 180 165 180 169 174 177 184 167 181 191 201 190 171
216 135 142 154 151 152 172 155 135 114 127 145 138 135 144 110 168 161 172 148 161 156 177 150 191 185 185 191 175 175 177 169 177 184 163 178 168 184 172 183 173 179 178 178 165 164 180 174 168
208 171 195 153 181 162 123 107 136 137 145 120 107 101 143 152 140 129 156 161 165 188 150 162 202 192 191 191 177 186 178 173 188 177 183 175 190 176 179 168 180 187 175 169 194 180 178 196 179
145 212 176 220 210 201 144 202 214 199 118 93 185 133 152 170 150 167 175 175 178 138 169 187 198 200 174 183 190 184 174 185 187 191 178 168 178 183 174 179 178 175 179 183 191 184 160 205 182
Wind_Speed
34 9 21 32 20 29 30 29 29 21 19 39 39 44 42 38 35 31 36 47 36 33 27 26 26 19 16 19 16 16 18 11 9 12 18 21 16 24 12 26 10 11 16 25 29 34 32 32 36
34 33 26 16 20 28 21 25 18 39 33 41 20 12 44 37 36 35 36 36 35 32 26 24 25 22 19 18 18 18 14 13 11 11 14 13 11 12 11 12 22 16 13 18 22 25 26 37 38
32 13 29 34 30 25 29 33 19 39 41 40 16 21 30 44 42 41 47 41 35 31 35 24 27 24 22 21 19 17 16 16 16 16 13 15 11 12 10 8 11 11 14 17 20 18 22 28 33
9 18 36 27 26 25 32 36 42 3 34 36 41 29 42 48 34 36 40 45 43 30 27 24 23 22 23 24 21 20 18 17 17 17 13 12 21 9 11 11 11 13 15 17 22 25 22 24 27
16 33 15 27 32 28 30 36 28 12 18 30 43 46 28 48 44 39 38 44 42 29 29 26 29 24 22 23 24 21 18 19 18 20 24 16 14 12 13 9 12 12 12 15 16 20 34 28 30
25 32 12 28 33 29 33 33 28 35 19 34 14 37 31 47 51 40 46 39 36 28 30 29 26 26 26 25 23 22 20 19 16 20 19 17 13 14 13 9 13 13 15 15 17 19 22 22 25
30 34 23 35 30 33 33 40 22 45 45 24 40 38 50 42 50 50 47 41 34 31 38 35 33 29 28 28 25 22 20 21 21 25 15 15 15 15 13 15 17 15 16 18 17 18 20 22 27
33 32 26 26 31 24 38 31 42 48 34 16 51 47 44 30 53 53 46 46 46 32 32 35 36 32 30 31 30 19 24 20 23 20 20 16 16 14 15 25 34 24 24 22 22 27 22 22 27
35 36 31 35 24 35 35 36 22 24 15 28 54 30 38 53 47 56 50 46 46 42 33 37 38 36 36 35 31 32 29 32 28 25 14 18 20 27 23 24 29 24 28 25 27 30 34 28 31
34 39 36 30 34 32 38 28 50 29 38 53 50 50 31 51 55 49 46 43 45 40 40 36 38 40 37 33 32 32 33 33 30 30 29 31 27 17 29 27 31 32 29 30 32 31 38 38 41
38 39 41 37 31 35 37 43 41 43 32 43 52 38 17 48 52 53 43 42 51 38 36 38 41 37 38 37 27 36 33 34 32 32 28 33 33 30 33 37 34 29 38 38 32 37 34 43 39
43 42 45 41 31 26 41 44 44 44 36 15 53 26 39 42 35 56 52 39 47 40 39 42 43 42 36 37 25 30 32 32 33 31 32 34 35 39 39 34 37 26 43 40 44 45 36 39 42
43 42 43 39 46 43 46 42 44 48 40 47 53 49 19 45 44 55 54 40 38 41 42 40 37 40 38 37 27 27 30 33 36 37 37 39 42 40 41 43 40 37 45 46 47 47 45 46 48
32 39 42 42 44 45 52 47 43 47 46 35 53 44 50 41 52 52 55 35 36 42 42 43 33 39 36 36 30 30 33 35 36 39 39 38 41 39 39 39 42 45 47 52 52 44 36 51 42
44 46 37 44 46 47 52 47 42 42 50 54 50 53 36 47 49 34 40 39 42 45 43 36 35 42 37 34 34 33 36 37 38 39 40 41 44 43 50 52 45 40 52 50 54 50 34 52 49
58 59 51 47 50 49 49 49 52 43 50 53 50 51 52 24 48 51 58 51 42 39 40 52 43 35 38 32 35 40 44 37 38 39 41 42 41 42 45 49 49 48 52 56 53 43 58 46 49
47 40 39 44 49 49 43 50 57 49 49 44 50 56 50 49 42 53 53 57 49 41 29 39 42 34 39 41 37 39 44 38 38 38 39 40 42 44 45 45 51 56 58 58 54 42 43 50 65
35 50 48 45 48 47 49 47 56 48 45 45 63 38 36 51 53 43 56 59 48 38 37 37 36 35 40 42 39 35 32 36 36 39 38 39 40 44 45 49 51 54 54 61 60 38 61 63 61
59 45 50 55 44 48 44 48 55 57 62 60 38 54 56 48 50 56 49 58 57 38 46 45 45 38 39 39 40 30 40 42 40 36 38 40 40 39 47 50 55 57 61 56 55 55 65 61 37
60 53 55 65 47 50 46 50 60 37 38 51 22 55 47 58 53 57 62 59 42 46 46 42 41 35 41 43 45 36 37 35 35 36 36 38 43 43 48 52 57 59 61 47 45 52 62 39 66
53 59 66 34 54 44 52 62 61 51 42 56 53 43 30 44 50 58 60 41 59 55 42 50 44 40 43 46 41 37 40 36 46 38 36 39 43 46 50 53 60 44 52 46 67 61 67 62 60
58 47 50 52 52 61 67 59 59 19 57 53 58 60 11 57 55 59 55 57 61 46 45 48 48 42 46 45 44 41 43 33 33 37 37 41 42 47 52 48 57 53 58 61 69 72 74 49 74
63 53 48 61 47 57 65 71 59 54 15 26 59 36 11 58 63 59 64 59 62 42 55 46 43 43 44 45 43 48 47 38 46 42 51 55 43 52 55 53 58 51 49 75 57 62 58 82 65
84 70 74 61 61 61 73 72 59 67 20 28 49 35 5 62 63 61 56 58 63 58 43 45 42 42 43 46 47 45 39 44 44 42 40 45 44 63 57 58 54 59 51 58 75 48 75 61 78
84 77 66 58 51 56 50 41 37 25 49 76 75 10 53 47 65 63 63 59 54 46 49 44 41 41 44 43 46 42 38 36 44 41 45 64 64 55 48 57 60 73 58 68 75 76 79 75 88
87 63 91 70 67 53 57 60 69 61 71 75 10 56 43 64 66 69 65 60 51 54 57 44 41 41 39 43 38 35 39 39 42 45 49 46 44 50 67 67 55 56 64 69 72 77 67 79 95
82 77 71 53 53 72 60 59 58 73 69 76 68 42 57 63 59 71 48 64 62 50 58 43 49 43 52 47 36 39 37 37 40 49 43 56 47 56 53 59 63 60 67 72 79 87 89 90 94
96 81 70 65 61 65 74 70 68 68 61 83 73 61 57 54 68 67 66 72 59 63 55 67 44 46 49 44 48 46 45 52 46 47 52 51 56 53 60 61 64 68 71 75 72 77 86 93 89
98 88 90 64 92 78 63 53 63 70 73 51 13 26 58 59 62 68 69 74 71 55 71 63 46 45 45 47 52 44 47 50 48 49 51 54 59 55 62 67 69 78 74 81 94 87 91 100 89
77 94 104 97 89 80 60 62 69 72 71 13 86 68 68 72 61 65 64 69 66 69 67 57 48 45 51 49 47 46 48 46 50 53 51 58 56 62 63 71 73 77 78 85 92 91 84 106 93
Wind_Direction
291 268 289 299 321 312 311 314 326 314 323 330 331 326 333 322 327 338 339 330 327 328 340 344 340 333 331 327 324 315 317 313 296 278 274 272 279 276 301 266 293 283 258 251 248 253 256 258 260
291 297 307 293 325 316 318 324 298 324 331 331 339 327 333 339 311 336 325 331 330 330 340 344 349 344 334 333 324 318 318 307 312 318 280 333 312 287 320 270 260 263 297 279 266 262 258 257 260
297 314 305 302 312 323 322 320 285 323 325 330 326 277 331 330 326 345 332 333 331 329 331 338 344 346 341 330 325 324 309 319 331 332 327 278 320 304 316 294 271 282 266 256 251 269 264 264 263
270 317 294 312 319 326 318 317 315 241 331 331 326 296 331 326 308 328 319 330 333 332 339 340 345 330 339 331 329 329 333 336 331 334 337 327 292 322 291 287 295 274 273 267 256 252 262 266 269
294 290 304 317 309 321 318 315 315 225 313 332 323 322 272 320 332 329 331 329 332 334 333 343 335 340 335 336 334 329 337 338 332 334 295 332 329 327 326 313 318 292 284 289 280 272 266 262 265
293 295 306 309 303 313 313 314 311 322 278 311 317 334 270 325 324 326 328 330 336 333 334 332 337 337 340 346 335 338 339 344 334 327 333 312 345 339 349 333 326 316 323 306 303 295 291 283 290
285 287 300 299 308 309 311 303 247 310 313 329 319 325 320 325 325 326 331 329 336 335 334 333 335 336 336 338 345 345 321 326 320 305 339 330 304 344 293 286 314 327 303 315 296 299 307 309 301
286 291 298 296 309 271 304 312 308 307 323 235 313 317 326 318 322 332 327 329 336 338 327 330 330 335 336 337 341 325 346 329 347 346 340 338 316 316 299 288 277 327 323 319 310 313 281 279 308
284 280 297 296 301 301 303 305 307 312 294 320 311 329 326 318 327 329 329 324 327 326 326 325 329 330 334 337 335 338 338 345 346 340 320 334 298 332 327 319 321 310 327 315 293 283 309 293 297
278 282 291 294 299 303 302 302 299 311 306 305 311 315 329 322 324 329 320 322 328 324 327 324 325 327 333 330 327 333 335 335 334 338 335 333 331 288 324 324 318 325 308 312 308 304 286 299 297
283 283 283 290 295 300 299 300 303 306 301 310 308 322 312 322 320 327 322 318 331 324 326 322 323 321 325 332 321 329 327 328 329 329 328 324 325 326 333 331 315 273 320 312 312 309 302 307 300
278 286 276 289 293 287 297 297 302 302 300 296 305 321 318 319 332 326 331 313 334 317 318 319 319 323 320 327 322 318 313 321 323 324 323 322 322 323 328 323 323 285 321 317 312 308 305 306 305
273 281 282 279 291 294 293 299 298 295 302 299 302 309 309 318 324 326 326 316 309 315 316 313 314 316 317 323 312 299 306 318 317 319 320 317 321 322 326 325 321 294 318 315 310 310 314 307 311
260 278 279 287 289 290 286 285 288 291 299 294 303 311 315 323 323 323 325 306 310 314 310 313 310 316 315 317 318 314 316 316 315 312 314 317 315 319 318 316 316 317 318 312 312 306 306 303 277
270 273 281 279 282 283 286 290 285 300 291 297 299 304 316 316 319 329 321 317 314 315 314 306 309 316 317 316 315 313 306 312 312 307 310 310 307 313 311 311 316 320 311 304 311 316 301 314 285
269 271 273 276 278 281 283 286 290 290 287 292 295 298 305 324 320 317 319 326 318 313 306 332 310 308 315 312 309 313 317 299 300 300 300 303 310 310 310 307 308 313 314 313 304 315 308 303 312
263 274 275 274 276 277 279 287 286 291 292 299 301 301 303 313 309 313 319 319 319 310 292 304 308 305 310 316 311 305 306 293 297 292 296 299 300 298 303 313 309 307 305 302 306 294 307 310 314
251 270 269 268 273 273 274 283 287 286 292 302 297 300 303 306 311 320 316 315 324 315 309 301 301 305 306 311 308 301 293 296 289 297 294 296 296 303 307 309 307 307 313 306 311 295 317 316 306
267 257 266 265 261 272 272 279 280 282 293 291 298 301 301 305 313 314 320 321 318 312 318 313 307 306 304 306 306 295 303 301 294 293 295 299 300 313 302 300 306 307 304 317 302 295 306 306 303
265 258 257 266 261 268 273 280 274 284 296 293 271 297 304 306 308 314 312 321 311 320 316 300 301 301 304 305 308 302 306 295 294 297 298 296 303 305 303 299 300 299 302 306 302 313 313 298 308
263 258 261 268 270 267 274 276 277 282 280 286 292 285 287 315 312 310 313 318 319 317 307 315 307 303 301 306 308 301 301 302 315 310 298 296 300 305 309 311 297 298 294 296 315 308 302 303 308
253 247 263 265 271 272 276 276 283 254 284 284 290 291 263 300 308 308 311 314 316 315 310 308 306 299 302 302 305 303 302 309 306 305 303 297 302 300 298 302 317 296 301 298 315 297 307 312 301
257 252 259 263 257 268 264 271 272 275 275 280 280 314 255 304 302 304 306 312 313 310 313 307 294 295 297 300 302 307 305 310 306 308 309 317 304 297 300 293 324 294 320 311 317 310 314 300 308
252 256 258 259 261 265 264 266 261 267 261 288 280 283 320 297 298 302 308 310 310 315 303 304 300 293 295 301 300 298 301 302 313 298 301 299 298 317 303 298 293 292 307 303 306 314 300 313 305
255 256 252 255 260 257 266 269 267 274 272 283 284 246 292 301 295 303 305 306 313 307 305 305 299 295 296 292 293 293 295 296 292 300 295 310 307 314 296 294 314 312 319 301 304 310 307 309 309
255 256 248 261 260 249 268 264 264 276 275 278 249 286 302 291 298 298 302 307 305 306 306 302 299 293 288 285 292 291 291 292 288 292 294 302 300 291 309 313 301 314 320 316 311 309 316 313 310
250 252 251 250 250 259 257 247 256 271 277 277 276 285 284 291 295 296 316 301 303 301 305 295 298 290 301 291 290 291 288 290 306 297 304 303 299 292 313 316 296 307 321 301 312 313 313 314 303
246 254 251 254 254 245 255 259 257 268 275 275 276 279 289 298 288 294 295 298 302 300 303 303 293 291 288 287 293 289 294 294 299 305 298 307 300 319 299 320 317 313 313 310 313 317 308 305 310
248 247 249 249 255 258 253 271 257 262 267 278 299 302 281 287 284 289 293 294 298 292 299 307 290 286 284 286 293 293 293 296 309 305 312 307 321 307 318 307 315 316 313 307 318 309 308 317 314
247 244 251 250 254 253 250 252 253 259 264 265 268 276 280 283 288 290 288 287 290 301 301 299 293 283 302 294 293 293 289 309 311 316 307 297 316 319 313 317 317 312 311 314 318 312 312 317 310